| time (UTC) | temp F | wind direction | speed MPH | gust MPH | rain 1hr in | rain 24hr in | rain mn in | humidity % | barometer mb |
| 20260508050008 | 40 | 252 | 0.0 | 8.0 | 0.00 | 0.00 | 0.00 | 100 | 1011.9 |
| 20260508044505 | 38 | 263 | 4.0 | 9.0 | 0.00 | 0.00 | 0.00 | 100 | 1012.2 |
| 20260508043105 | 35 | 93 | 0.0 | 0.0 | 0.00 | 0.00 | 0.00 | 100 | 1011.5 |
| 20260508041555 | 36 | 93 | 0.0 | 2.0 | 0.00 | 0.00 | 0.00 | 100 | 1011.4 |
| 20260508040050 | 36 | 204 | 0.0 | 4.0 | 0.00 | 0.00 | 0.00 | 100 | 1011.6 |
| 20260508034547 | 37 | 208 | 0.0 | 2.0 | 0.00 | 0.00 | 0.00 | 100 | 1011.4 |
| 20260508033042 | 37 | 191 | 0.0 | 1.0 | 0.00 | 0.00 | 0.00 | 5 | 1011.4 |
| 20260508031545 | 38 | 175 | 0.0 | 5.0 | 0.00 | 0.00 | 0.00 | 6 | 1011.6 |
| 20260508030010 | 38 | 105 | 0.0 | 0.0 | 0.00 | 0.00 | 0.00 | 2 | 1011.4 |
| 20260508024505 | 38 | 171 | 0.0 | 0.0 | 0.00 | 0.00 | 0.00 | 100 | 1011.6 |
| 20260508023049 | 37 | 161 | 0.0 | 2.0 | 0.00 | 0.00 | 0.00 | 100 | 1011.5 |
| 20260508021545 | 37 | 204 | 0.0 | 0.0 | 0.00 | 0.00 | 0.00 | 100 | 1011.4 |
| 20260508020041 | 37 | 231 | 0.0 | 0.0 | 0.00 | 0.00 | 0.00 | 100 | 1011.3 |
| 20260508014537 | 38 | 231 | 0.0 | 0.0 | 0.00 | 0.00 | 0.00 | 100 | 1011.3 |
| 20260508013032 | 39 | 282 | 0.0 | 0.0 | 0.00 | 0.00 | 0.00 | 100 | 1011.2 |
| 20260508011529 | 39 | 282 | 0.0 | 0.0 | 0.00 | 0.00 | 0.00 | 100 | 1011.4 |
| 20260508010026 | 39 | 281 | 0.0 | 0.0 | 0.00 | 0.00 | 0.00 | 100 | 1011.5 |
| 20260508004518 | 40 | 315 | 0.0 | 0.0 | 0.00 | 0.00 | 0.00 | 100 | 1011.4 |
| 20260508003002 | 40 | 296 | 3.0 | 6.0 | 0.00 | 0.00 | 0.00 | 100 | 1011.6 |
| 20260508001558 | 40 | 246 | 0.0 | 5.0 | 0.00 | 0.00 | 0.00 | 26 | 1011.3 |
| 20260508000054 | 40 | 261 | 0.0 | 5.0 | 0.00 | 0.00 | 0.00 | 39 | 1011.2 |
| 20260507234551 | 40 | 252 | 0.0 | 8.0 | 0.00 | 0.00 | 0.00 | 46 | 1011.2 |
| 20260507233045 | 41 | 160 | 0.0 | 5.0 | 0.00 | 0.00 | 0.00 | 45 | 1011.0 |
| 20260507231542 | 42 | 227 | 1.0 | 8.0 | 0.00 | 0.00 | 0.00 | 44 | 1011.2 |
| 20260507230036 | 42 | 238 | 0.0 | 9.0 | 0.00 | 0.00 | 0.00 | 47 | 1011.2 |
| 20260507224534 | 42 | 252 | 1.0 | 8.0 | 0.00 | 0.00 | 0.00 | 48 | 1011.3 |
| 20260507223028 | 42 | 214 | 3.0 | 12.0 | 0.00 | 0.00 | 0.00 | 51 | 1011.2 |
| 20260507221510 | 43 | 197 | 0.0 | 6.0 | 0.00 | 0.00 | 0.00 | 51 | 1011.2 |
| 20260507220006 | 45 | 259 | 2.0 | 9.0 | 0.00 | 0.00 | 0.00 | 50 | 1011.3 |
| 20260507214502 | 43 | 252 | 1.0 | 7.0 | 0.00 | 0.00 | 0.00 | 50 | 1011.3 |
| 20260507213106 | 43 | 227 | 0.0 | 7.0 | 0.00 | 0.00 | 0.00 | 49 | 1011.3 |
| 20260507211557 | 43 | 192 | 1.0 | 9.0 | 0.00 | 0.00 | 0.00 | 48 | 1011.3 |
| 20260507210049 | 42 | 180 | 0.0 | 7.0 | 0.00 | 0.00 | 0.00 | 45 | 1011.4 |
| 20260507204552 | 42 | 255 | 1.0 | 8.0 | 0.00 | 0.00 | 0.00 | 40 | 1011.5 |
| 20260507203041 | 42 | 251 | 0.0 | 7.0 | 0.00 | 0.00 | 0.00 | 32 | 1011.6 |
| 20260507201530 | 42 | 144 | 0.0 | 8.0 | 0.00 | 0.00 | 0.00 | 48 | 1011.7 |
| 20260507200019 | 43 | 224 | 1.0 | 10.0 | 0.00 | 0.00 | 0.00 | 51 | 1011.6 |
| 20260507194515 | 43 | 237 | 2.0 | 11.0 | 0.00 | 0.00 | 0.00 | 51 | 1011.6 |
| 20260507193010 | 44 | 234 | 2.0 | 8.0 | 0.00 | 0.00 | 0.00 | 50 | 1011.7 |
| 20260507191506 | 45 | 238 | 3.0 | 12.0 | 0.00 | 0.00 | 0.00 | 49 | 1011.8 |
| 20260507190006 | 46 | 227 | 3.0 | 12.0 | 0.00 | 0.00 | 0.00 | 49 | 1011.8 |
| 20260507184606 | 45 | 173 | 3.0 | 9.0 | 0.00 | 0.00 | 0.00 | 49 | 1011.7 |
| 20260507183054 | 45 | 242 | 3.0 | 11.0 | 0.00 | 0.00 | 0.00 | 48 | 1011.7 |
| 20260507181540 | 45 | 224 | 1.0 | 7.0 | 0.00 | 0.00 | 0.00 | 45 | 1011.9 |
| 20260507180033 | 44 | 232 | 1.0 | 7.0 | 0.00 | 0.00 | 0.00 | 49 | 1012.0 |
| 20260507174533 | 44 | 261 | 3.0 | 10.0 | 0.00 | 0.00 | 0.00 | 49 | 1012.1 |
| 20260507173024 | 43 | 250 | 2.0 | 12.0 | 0.00 | 0.00 | 0.00 | 47 | 1012.3 |
| 20260507171620 | 43 | 225 | 3.0 | 9.0 | 0.00 | 0.00 | 0.00 | 46 | 1012.3 |
| 20260507170015 | 43 | 244 | 3.0 | 11.0 | 0.00 | 0.00 | 0.00 | 47 | 1012.5 |
| 20260507164511 | 42 | 253 | 2.0 | 8.0 | 0.00 | 0.00 | 0.00 | 37 | 1012.7 |
| 20260507163007 | 41 | 169 | 3.0 | 9.0 | 0.00 | 0.00 | 0.00 | 11 | 1012.9 |
| 20260507161549 | 42 | 212 | 2.0 | 7.0 | 0.00 | 0.00 | 0.00 | 1 | 1013.1 |
| 20260507160048 | 41 | 251 | 2.0 | 7.0 | 0.00 | 0.00 | 0.00 | 100 | 1013.2 |
| 20260507154540 | 41 | 198 | 1.0 | 7.0 | 0.00 | 0.00 | 0.00 | 100 | 1013.3 |
| 20260507153036 | 40 | 214 | 2.0 | 7.0 | 0.00 | 0.00 | 0.00 | 100 | 1013.5 |
| 20260507151531 | 40 | 211 | 2.0 | 7.0 | 0.00 | 0.00 | 0.00 | 100 | 1013.4 |
| 20260507150026 | 40 | 247 | 2.0 | 7.0 | 0.00 | 0.00 | 0.00 | 100 | 1013.3 |
| 20260507144523 | 40 | 217 | 0.0 | 5.0 | 0.00 | 0.00 | 0.00 | 100 | 1013.2 |
| 20260507143032 | 40 | 263 | 0.0 | 6.0 | 0.00 | 0.00 | 0.00 | 100 | 1013.3 |
| 20260507141501 | 40 | 253 | 0.0 | 6.0 | 0.00 | 0.00 | 0.00 | 100 | 1013.2 |
| 20260507140056 | 40 | 251 | 0.0 | 5.0 | 0.00 | 0.00 | 0.00 | 100 | 1013.2 |
| 20260507134555 | 40 | 215 | 0.0 | 7.0 | 0.00 | 0.00 | 0.00 | 100 | 1013.3 |
| 20260507133049 | 41 | 236 | 0.0 | 6.0 | 0.00 | 0.00 | 0.00 | 100 | 1013.2 |
| 20260507131552 | 41 | 213 | 0.0 | 5.0 | 0.00 | 0.00 | 0.00 | 100 | 1013.1 |
| 20260507130043 | 41 | 215 | 0.0 | 5.0 | 0.00 | 0.00 | 0.00 | 100 | 1013.1 |
| 20260507124537 | 40 | 199 | 0.0 | 3.0 | 0.00 | 0.00 | 0.00 | 100 | 1013.1 |
| 20260507123031 | 38 | 297 | 0.0 | 0.0 | 0.00 | 0.00 | 0.00 | 100 | 1013.0 |
| 20260507121509 | 37 | 298 | 0.0 | 0.0 | 0.00 | 0.00 | 0.00 | 100 | 1013.0 |
| 20260507120005 | 36 | 298 | 0.0 | 0.0 | 0.00 | 0.00 | 0.00 | 100 | 1012.9 |
| 20260507114544 | 35 | 298 | 0.0 | 0.0 | 0.00 | 0.00 | 0.00 | 100 | 1012.8 |
| 20260507113039 | 34 | 298 | 0.0 | 0.0 | 0.00 | 0.00 | 0.00 | 100 | 1012.6 |
| 20260507111523 | 33 | 298 | 0.0 | 0.0 | 0.00 | 0.00 | 0.00 | 100 | 1012.5 |
| 20260507110021 | 32 | 298 | 0.0 | 0.0 | 0.00 | 0.00 | 0.00 | 100 | 1012.5 |
| 20260507104514 | 32 | 298 | 0.0 | 0.0 | 0.00 | 0.00 | 0.00 | 100 | 1012.5 |
| 20260507103011 | 31 | 298 | 0.0 | 0.0 | 0.00 | 0.00 | 0.00 | 100 | 1012.4 |
| 20260507101507 | 31 | 298 | 0.0 | 0.0 | 0.00 | 0.00 | 0.00 | 100 | 1012.5 |
| 20260507100001 | 31 | 298 | 0.0 | 0.0 | 0.00 | 0.00 | 0.00 | 100 | 1012.6 |
| 20260507094557 | 30 | 298 | 0.0 | 0.0 | 0.00 | 0.00 | 0.00 | 100 | 1012.6 |
| 20260507093053 | 30 | 298 | 0.0 | 0.0 | 0.00 | 0.00 | 0.00 | 100 | 1012.7 |
| 20260507091535 | 30 | 298 | 0.0 | 0.0 | 0.00 | 0.00 | 0.00 | 100 | 1012.8 |
| 20260507090026 | 31 | 298 | 0.0 | 0.0 | 0.00 | 0.00 | 0.00 | 100 | 1012.9 |
| 20260507084503 | 31 | 298 | 0.0 | 0.0 | 0.00 | 0.00 | 0.00 | 100 | 1013.0 |
| 20260507083059 | 31 | 298 | 0.0 | 0.0 | 0.00 | 0.00 | 0.00 | 100 | 1013.0 |
| 20260507081536 | 31 | 298 | 0.0 | 0.0 | 0.00 | 0.00 | 0.00 | 100 | 1013.2 |
| 20260507080032 | 32 | 298 | 0.0 | 0.0 | 0.00 | 0.00 | 0.00 | 100 | 1013.2 |
| 20260507074516 | 32 | 298 | 0.0 | 0.0 | 0.00 | 0.00 | 0.00 | 100 | 1013.2 |
| 20260507073013 | 33 | 298 | 0.0 | 0.0 | 0.00 | 0.00 | 0.00 | 100 | 1013.3 |
| 20260507071506 | 33 | 298 | 0.0 | 0.0 | 0.00 | 0.00 | 0.00 | 100 | 1013.3 |
| 20260507070004 | 33 | 298 | 0.0 | 0.0 | 0.00 | 0.00 | 0.00 | 100 | 1013.5 |
| 20260507064634 | 33 | 298 | 0.0 | 0.0 | 0.00 | 0.00 | 0.00 | 100 | 1013.7 |
| 20260507063105 | 33 | 298 | 0.0 | 0.0 | 0.00 | 0.00 | 0.00 | 100 | 1013.8 |
| 20260507061550 | 33 | 298 | 0.0 | 0.0 | 0.00 | 0.00 | 0.00 | 100 | 1014.0 |
| 20260507060107 | 32 | 298 | 0.0 | 0.0 | 0.00 | 0.00 | 0.00 | 100 | 1014.0 |
| 20260507054547 | 32 | 298 | 0.0 | 0.0 | 0.00 | 0.00 | 0.00 | 100 | 1014.2 |
| 20260507053019 | 32 | 298 | 0.0 | 0.0 | 0.00 | 0.00 | 0.00 | 100 | 1014.2 |
| 20260507051515 | 33 | 298 | 0.0 | 0.0 | 0.00 | 0.00 | 0.00 | 100 | 1014.1 |